(143702) = 2003 UG91

Discovered at Socorro on 2003-10-20 by LINEAR.

Orbit

Orbit type: Main Belt

Note: WebGL enabled browser required.

epoch2023-09-13.0
epoch JD2460200.5
perihelion date2020-09-13.01778
perihelion JD2459105.51778
argument of perihelion (°)307.55767
ascending node (°)112.71201
inclination (°)3.64429
eccentricity0.1143988
perihelion distance (AU)1.9770415
Tisserand w.r.t. Jupiter3.6
ΔV w.r.t. Earth (km/sec)8.7
semimajor axis (AU)2.2324287
mean anomaly (°)323.55233
mean daily motion (°/day)0.29548640
aphelion distance (AU)2.488
period (years)3.34
P-vector [x]0.49443962
P-vector [y]0.81618853
P-vector [z]0.29894104
Q-vector [x]-0.86723215
Q-vector [y]0.44002101
Q-vector [z]0.23300194
absolute magnitude17.52
phase slope0.15
uncertainty0
referenceMPEC 2024-B173
observations used413
oppositions15
arc length (days)10510
first opposition used1995
last opposition used2024
residual rms (arc-secs)0.77
perturbers coarse indicatorM-v
perturbers precise indicator003Ek
first observation date used1995-04-22.0
last observation date used2024-01-30.0
computer nameMPCLINUX
JD of orbit computation2456639.607168
perihelion JD uncertainty (days)7.3864E-05
argument of perihelion uncertainty (°)9.0591E-05
ascending node uncertainty (°)8.7492E-05
inclination uncertainty (°)4.0334E-06
eccentricity uncertainty 5.0311E-08
perihelion distance uncertainty (AU)1.1449E-07
Minimum Orbit Intersection Distances (in AU)
for orbit epoch: 2460200.5, reference: E2024-BH3
Mercury1.66618
Venus1.25585
Earth0.99115
Mars0.43625
Jupiter2.77716
Saturn7.02613
Uranus16.1277
Neptune27.7982

Observations

420 total observations over interval: 1995 04 22.33424 – 2024 01 30.120218
These data are available for download (format description).

Date (UT) J2000 RA J2000 Dec Magn Location Ref
1995 04 22.33424 13 35 00.45 -03 18 05.3   691 – Steward Observatory, Kitt Peak-Spacewatch MPS 91059
1995 04 22.35586 13 34 59.15 -03 17 58.7 21.1 V 691 – Steward Observatory, Kitt Peak-Spacewatch MPS 91059
1995 04 22.37900 13 34 57.74 -03 17 51.2   691 – Steward Observatory, Kitt Peak-Spacewatch MPS 91059
2000 12 03.50123 07 22 57.48 +19 44 53.8 20.4 V 691 – Steward Observatory, Kitt Peak-Spacewatch MPS 91059
2000 12 03.51306 07 22 57.15 +19 44 55.7 20.7 V 691 – Steward Observatory, Kitt Peak-Spacewatch MPS 91059
2000 12 03.52522 07 22 56.83 +19 44 57.2 20.8 V 691 – Steward Observatory, Kitt Peak-Spacewatch MPS 91059
2000 12 30.31779 07 00 25.44 +21 19 23.5 19.4   704 – Lincoln Laboratory ETS, New Mexico MPS 91059
2000 12 30.33301 07 00 24.37 +21 19 26.8 19.0   704 – Lincoln Laboratory ETS, New Mexico MPS 91059
2000 12 30.34840 07 00 23.25 +21 19 29.8 18.8   704 – Lincoln Laboratory ETS, New Mexico MPS 91059
2000 12 30.36359 07 00 22.22 +21 19 34.5 19.2   704 – Lincoln Laboratory ETS, New Mexico MPS 91059
2001 01 15.22875 06 42 54.97 +22 23 10.4 18.9   704 – Lincoln Laboratory ETS, New Mexico MPS 91059
2001 01 15.24443 06 42 54.00 +22 23 14.9 19.5   704 – Lincoln Laboratory ETS, New Mexico MPS 91059
2001 01 15.25988 06 42 53.04 +22 23 17.2 19.4   704 – Lincoln Laboratory ETS, New Mexico MPS 91059
2003 09 22.34630 02 31 54.92 +08 10 47.4 19.8   644 – Palomar Mountain/NEAT MPS 90610
2003 09 22.36338 02 31 54.71 +08 10 43.7 20.1   644 – Palomar Mountain/NEAT MPS 90610
2003 09 22.37940 02 31 54.49 +08 10 40.5 20.1   644 – Palomar Mountain/NEAT MPS 90610
2003 09 28.30946 02 30 14.65 +07 47 46.3 20.5   704 – Lincoln Laboratory ETS, New Mexico MPS 90610
2003 09 28.32239 02 30 14.28 +07 47 43.3 20.5   704 – Lincoln Laboratory ETS, New Mexico MPS 90610
2003 09 28.33528 02 30 13.99 +07 47 41.3 20.1   704 – Lincoln Laboratory ETS, New Mexico MPS 90610
2003 10 20.23411 02 14 54.21 +05 57 56.7 19.1   644 – Palomar Mountain/NEAT MPS 89689
2003 10 20.30425 02 14 50.06 +05 57 35.0 19.2   644 – Palomar Mountain/NEAT MPS 89689
2003 10 20.31555 02 14 49.25 +05 57 32.5 19.2   704 – Lincoln Laboratory ETS, New Mexico MPS 89689
2003 10 20.32714 02 14 48.63 +05 57 27.3 19.2   704 – Lincoln Laboratory ETS, New Mexico MPS 89689
2003 10 20.33917 02 14 47.95 +05 57 24.0 19.9   704 – Lincoln Laboratory ETS, New Mexico MPS 89689
2003 10 20.35055 02 14 47.13 +05 57 20.7 19.6   704 – Lincoln Laboratory ETS, New Mexico MPS 89689
2003 10 20.36209 02 14 46.49 +05 57 17.9 19.4   704 – Lincoln Laboratory ETS, New Mexico MPS 89689
2003 10 20.37115 02 14 46.08 +05 57 14.0 19.0   644 – Palomar Mountain/NEAT MPS 89689
2003 10 21.26319 02 13 55.69 +05 52 35.7 19.6 V 691 – Steward Observatory, Kitt Peak-Spacewatch MPS 89689
2003 10 21.29766 02 13 53.62 +05 52 25.0 19.7 V 691 – Steward Observatory, Kitt Peak-Spacewatch MPS 89689
2003 10 21.32410 02 13 52.02 +05 52 16.7 19.7 V 691 – Steward Observatory, Kitt Peak-Spacewatch MPS 89689
2003 10 21.37221 02 13 49.18 +05 52 01.6 18.9   644 – Palomar Mountain/NEAT MPS 89689
2003 10 21.39888 02 13 47.59 +05 51 53.6 18.9   644 – Palomar Mountain/NEAT MPS 89689
2003 10 21.42009 02 13 46.31 +05 51 46.7 18.8   644 – Palomar Mountain/NEAT MPS 89689
2003 10 25.26018 02 10 03.15 +05 32 22.5 19.4   704 – Lincoln Laboratory ETS, New Mexico MPS 90610
2003 10 25.27183 02 10 02.37 +05 32 17.9 19.8   704 – Lincoln Laboratory ETS, New Mexico MPS 90610
2003 10 25.28404 02 10 01.59 +05 32 15.6 19.4   704 – Lincoln Laboratory ETS, New Mexico MPS 90610
2003 10 25.29569 02 10 00.95 +05 32 12.0 19.6   704 – Lincoln Laboratory ETS, New Mexico MPS 90610
2003 10 25.30744 02 10 00.10 +05 32 08.8 19.8   704 – Lincoln Laboratory ETS, New Mexico MPS 90610
2003 10 30.29177 02 05 05.57 +05 09 01.7 19.0   704 – Lincoln Laboratory ETS, New Mexico MPS 90610
2003 10 30.30399 02 05 04.81 +05 08 58.4 19.3   704 – Lincoln Laboratory ETS, New Mexico MPS 90610
2003 10 30.31735 02 05 03.89 +05 08 54.4 19.1   704 – Lincoln Laboratory ETS, New Mexico MPS 90610
2003 11 19.14808 01 48 31.05 +04 17 56.0 20.6   644 – Palomar Mountain/NEAT MPS 91059
2003 11 19.16861 01 48 30.25 +04 17 55.3 20.4   644 – Palomar Mountain/NEAT MPS 91059
2003 11 19.18954 01 48 29.42 +04 17 54.8 20.5   644 – Palomar Mountain/NEAT MPS 91059
2005 04 01.26907 13 51 58.65 -04 59 15.2 20.7 V 691 – Steward Observatory, Kitt Peak-Spacewatch MPS 178422
2005 04 01.28713 13 51 57.61 -04 59 08.9 20.7 V 691 – Steward Observatory, Kitt Peak-Spacewatch MPS 178422
2005 04 01.30548 13 51 56.64 -04 59 02.4 20.8 V 691 – Steward Observatory, Kitt Peak-Spacewatch MPS 178422
2005 05 04.19023 13 21 09.71 -02 08 56.8 20.6 V 691 – Steward Observatory, Kitt Peak-Spacewatch MPS 178422
2005 05 04.20591 13 21 08.96 -02 08 53.7 20.9 V 691 – Steward Observatory, Kitt Peak-Spacewatch MPS 178422
2005 05 04.22160 13 21 08.21 -02 08 50.5 21.2 V 691 – Steward Observatory, Kitt Peak-Spacewatch MPS 178422
2006 08 16.27647 22 18 25.38 -14 37 00.2 20.5 R 644 – Palomar Mountain/NEAT MPS 176996
2006 08 16.29682 22 18 24.25 -14 37 09.3 19.7 R 644 – Palomar Mountain/NEAT MPS 176996
2006 08 16.31725 22 18 23.06 -14 37 18.7 20.2 R 644 – Palomar Mountain/NEAT MPS 176996
2006 08 17.26152 22 17 31.16 -14 44 15.0 20.4 R 644 – Palomar Mountain/NEAT MPS 176025
2006 08 17.28199 22 17 30.01 -14 44 24.0 19.8 R 644 – Palomar Mountain/NEAT MPS 176025
2006 08 17.30289 22 17 28.73 -14 44 33.5 20.4 R 644 – Palomar Mountain/NEAT MPS 176025
2007 12 31.52159 11 14 45.63 +07 29 16.9 20.9 V G96 – Mt. Lemmon Survey MPS 233230
2007 12 31.52746 11 14 45.81 +07 29 16.4 21.2 V G96 – Mt. Lemmon Survey MPS 233230
2007 12 31.53345 11 14 45.96 +07 29 16.2 20.9 V G96 – Mt. Lemmon Survey MPS 233230
2007 12 31.53940 11 14 46.14 +07 29 16.3 21.3 V G96 – Mt. Lemmon Survey MPS 233230
2008 02 01.33680 11 15 32.27 +08 54 50.8 20.7 V 691 – Steward Observatory, Kitt Peak-Spacewatch MPS 236055
2008 02 01.35438 11 15 31.71 +08 54 57.4 21.1 V 691 – Steward Observatory, Kitt Peak-Spacewatch MPS 236055
2008 02 01.37197 11 15 31.16 +08 55 03.6 20.7 V 691 – Steward Observatory, Kitt Peak-Spacewatch MPS 236055
2008 02 10.35150 11 09 56.77 +09 54 27.8 20.0 V 691 – Steward Observatory, Kitt Peak-Spacewatch MPS 239011
2008 02 10.36913 11 09 55.95 +09 54 34.4 19.9 V 691 – Steward Observatory, Kitt Peak-Spacewatch MPS 239011
2008 02 10.38678 11 09 55.11 +09 54 43.0 20.1 V 691 – Steward Observatory, Kitt Peak-Spacewatch MPS 239011
2008 02 28.21883 10 53 46.35 +12 10 50.4 19.9 V G96 – Mt. Lemmon Survey MPS 240482
2008 02 28.22604 10 53 45.88 +12 10 53.6 20.1 V G96 – Mt. Lemmon Survey MPS 240482
2008 02 28.23318 10 53 45.45 +12 10 56.8 19.9 V G96 – Mt. Lemmon Survey MPS 240482
2008 02 28.24032 10 53 45.02 +12 11 00.2 20.0 V G96 – Mt. Lemmon Survey MPS 240482
2008 02 29.59568 10 52 23.58 +12 21 07.7 20.5 R D29 – Purple Mountain Observatory, XuYi Station MPS 241833
2008 02 29.61037 10 52 22.66 +12 21 14.2 20.2 R D29 – Purple Mountain Observatory, XuYi Station MPS 241833
2008 02 29.62523 10 52 21.77 +12 21 19.2 19.2 R D29 – Purple Mountain Observatory, XuYi Station MPS 241833
2008 02 29.63984 10 52 20.79 +12 21 27.7 19.9 R D29 – Purple Mountain Observatory, XuYi Station MPS 241833
2008 03 03.28286 10 49 42.06 +12 40 41.3 20.8 V 703 – Catalina Sky Survey MPS 241833
2008 03 03.29336 10 49 41.23 +12 40 45.8 20.2 V 703 – Catalina Sky Survey MPS 241833
2008 03 03.30387 10 49 40.62 +12 40 51.3 20.7 V 703 – Catalina Sky Survey MPS 241833
2008 03 03.31441 10 49 39.86 +12 40 55.5 20.8 V 703 – Catalina Sky Survey MPS 241833
2008 03 12.22052 10 41 05.52 +13 39 01.4 19.8 C 704 – Lincoln Laboratory ETS, New Mexico MPS 287856
2008 03 12.23168 10 41 04.96 +13 39 05.1 20.1 C 704 – Lincoln Laboratory ETS, New Mexico MPS 287856
2008 03 12.24279 10 41 04.28 +13 39 09.4 19.6 C 704 – Lincoln Laboratory ETS, New Mexico MPS 287856
2008 03 26.16579 10 30 27.67 +14 40 36.8   691 – Steward Observatory, Kitt Peak-Spacewatch MPS 244487
2008 03 26.18513 10 30 26.93 +14 40 40.0   691 – Steward Observatory, Kitt Peak-Spacewatch MPS 244487
2008 03 26.20395 10 30 26.24 +14 40 43.4   691 – Steward Observatory, Kitt Peak-Spacewatch MPS 244487
2008 03 28.13062 10 29 21.44 +14 45 59.7 20.4 V 691 – Steward Observatory, Kitt Peak-Spacewatch MPS 244487
